Location: Chena
(64.8152°N, 147.9227°W)
Time: 18:28:59
(UTC+00:00)

SPROUT - Visible Passes

Search period start: 16 April 2021 00:00
Search period end: 26 April 2021 00:00
Orbit: 596 x 610 km, 97.9° (Epoch: 16 April)

Date Brightness Start Highest point End Pass type
(mag) Time Alt. Az. Time Alt. Az. Time Alt. Az.
16 Apr ? 07:15:16 10° E 07:18:06 18° NE 07:20:55 10° N visible
16 Apr ? 08:50:11 18° SE 08:53:08 50° ENE 08:57:13 10° NNW visible
16 Apr ? 10:26:59 24° SSW 10:29:03 40° W 10:33:04 10° NNW visible
16 Apr ? 12:05:28 10° W 12:06:01 10° WNW 12:06:34 10° WNW visible
17 Apr ? 07:26:59 10° E 07:30:01 20° NE 07:33:05 10° N visible
17 Apr ? 09:02:17 19° SE 09:05:09 59° ENE 09:09:20 10° NNW visible
17 Apr ? 10:39:05 21° SW 10:41:12 34° W 10:45:05 10° NNW visible
18 Apr ? 07:38:43 10° E 07:41:58 22° NE 07:45:14 10° N visible
18 Apr ? 09:14:23 20° SE 09:17:12 70° ENE 09:21:26 10° NNW visible
18 Apr ? 10:51:11 18° SW 10:53:22 28° W 10:57:05 10° NNW visible
19 Apr ? 07:50:28 10° E 07:53:55 25° NE 07:57:22 10° N visible
19 Apr ? 09:26:28 21° SSE 09:29:16 83° ENE 09:33:31 10° NNW visible
19 Apr ? 11:03:16 16° SW 11:05:33 24° W 11:09:02 10° NW visible
20 Apr ? 08:02:17 10° ESE 08:05:52 28° NE 08:09:30 10° N visible
20 Apr ? 09:38:33 21° SSE 09:41:19 83° WSW 09:45:35 10° NNW visible
20 Apr ? 11:15:22 13° SW 11:17:45 20° W 11:20:58 10° NW visible
21 Apr ? 08:14:06 10° ESE 08:17:51 32° NE 08:21:36 10° N visible
21 Apr ? 09:50:39 21° S 09:53:25 70° WSW 09:57:39 10° NNW visible
21 Apr ? 11:27:27 11° WSW 11:29:58 17° W 11:32:49 10° NW visible
22 Apr ? 06:52:39 10° ENE 06:54:58 15° NNE 06:57:18 10° N visible
22 Apr ? 08:25:57 10° ESE 08:29:49 37° NE 08:33:44 10° NNW visible
22 Apr ? 10:02:44 20° S 10:05:30 58° WSW 10:09:43 10° NNW visible
22 Apr ? 11:39:48 10° WSW 11:42:12 15° W 11:44:36 10° NW visible
23 Apr ? 07:04:17 10° ENE 07:06:52 16° NE 07:09:28 10° N visible
23 Apr ? 08:38:01 11° SE 08:41:49 42° ENE 08:45:50 10° NNW visible
23 Apr ? 10:14:49 19° S 10:17:37 48° W 10:21:45 10° NNW visible
23 Apr ? 11:52:40 10° WSW 11:54:26 12° W 11:56:13 10° NW visible
24 Apr ? 07:15:56 10° E 07:18:46 18° NE 07:21:37 10° N visible
24 Apr ? 08:50:06 12° SE 08:53:49 50° ENE 08:57:56 10° NNW visible
24 Apr ? 10:26:54 17° SSW 10:29:44 40° W 10:33:46 10° NNW visible
24 Apr ? 12:06:11 10° W 12:06:42 10° WNW 12:07:14 10° WNW visible
25 Apr ? 07:27:38 10° E 07:30:41 20° NE 07:33:46 10° N visible
25 Apr ? 09:02:11 13° SE 09:05:49 59° ENE 09:10:00 10° NNW visible
25 Apr ? 10:38:59 16° SSW 10:41:52 34° W 10:45:46 10° NNW visible
